Powrót do katalogu

RASCOM 1

AktywnyŁącznośćGEO
NORAD 32387·PAYLOAD·🇨🇦 Canada

Wystrzelony Dec 21, 2007 z Guiana Space Centre

Loading…

TLE

ŚwieżeSource: Space-Track

Epoka: Sep 14, 2026, 10:42 UTC

1 32387U 07063A   26257.44638455  .00000051  00000-0  00000-0 0  9996
2 32387  11.5694  40.8551 0010917 114.8357 237.6774  0.99061249 68359

Śledź RASCOM 1 w czasie rzeczywistym z AllMySat

Download on the App Store